weather.gov     
National Weather Service

Regional Weather Roundup
NWS Homepage
This page is being discontinued on March 12, 2014.
The same data is available at this site. Please update your bookmarks.
Thank you, and we apologize for the inconvenience.
Please send an email to SR-SRH.Webmaster@noaa.gov with any concerns.


Current Version
Previous Version:    01  02  03  04  05  06  07  08  09  10  11  12  13  14  15  16  17  18  19  20  21  22  23  24  25  26  
[Printable]
843
ASUS45 KSLC 250010
RWRUT

UTAH REGIONAL WEATHER ROUNDUP
NATIONAL WEATHER SERVICE SALT LAKE CITY UT
600 PM MDT FRI OCT 24 2014

UTZ001>011-023>025-250100-

NORTHERN UTAH

CITY           SKY/WX    TMP DP  RH WIND       PRES   REMARKS
BRIGHAM CITY   CLEAR     73  32  22 CALM      30.10F
HILL AFB       CLEAR     71  39  31 NW7       30.12F
LOGAN          CLEAR     72  31  22 E5        30.10F
OGDEN          CLEAR     70  37  29 NW7       30.09F
PROVO AIRPORT  CLEAR     75  32  20 CALM      30.12S
SALT LAKE CITY CLEAR     71  40  32 W6        30.09S
VERNAL         CLEAR     67  35  30 NE3       30.19F
WENDOVER       CLEAR     64  32  29 CALM      30.08F
HEBER CITY     CLEAR     70  28  21 SW8       30.17S
WEST JORDAN    CLEAR     73  43  33 SE8       30.10F

$$

UTZ012>022-026-027-250100-

SOUTHERN/CENTRAL UTAH

CITY           SKY/WX    TMP DP  RH WIND       PRES   REMARKS
BLANDING       CLEAR     70  33  25 CALM      30.34F
BRYCE CANYON   CLEAR     64  27  24 SE13      30.35S
CEDAR CITY     CLEAR     71  23  16 SW12      30.18F
DELTA          CLEAR     77  25  14 S8        30.11F
HANKSVILLE       N/A     79  30  17 E9        30.16S
MILFORD        CLEAR     76  27  16 SW13      30.13F
MOAB/CYNLANDS  CLEAR     77  33  20 E3        30.14F
PRICE          CLEAR     68  31  25 E5        30.25F
ST GEORGE      CLEAR     82  37  20 SW3       30.06F
KANAB            N/A     75  32  20 CALM      30.21S

$$

REGIONAL REPORTS     COLORADO/ARIZONA

CITY           SKY/WX    TMP DP  RH WIND       PRES   REMARKS
CRAIG, CO      CLEAR     63  29  27 SW7       30.24S
GRAND JUNCTION CLEAR     69  36  29 W5        30.20F
RIFLE          CLEAR     68  34  28 SW7       30.23F
MONTROSE       CLEAR     72  31  22 NW5       30.26F
CORTEZ         CLEAR     70  27  20 MISG      30.28F
PAGE, AZ       CLEAR     77  34  21 CALM      30.15F
GRAND CANYON   CLEAR     72  22  15 W7        30.30F
KINGMAN        CLEAR     81  34  18 SW10      30.09F
FLAGSTAFF      CLEAR     67  24  19 SW8       30.34F

$$

REGIONAL REPORTS    NEVADA/IDAHO/WYOMING

CITY           SKY/WX    TMP DP  RH WIND       PRES   REMARKS
LAS VEGAS, NV  CLEAR     87  39  18 E6        29.95F
ELY            CLEAR     71  23  16 S15       30.17F
ELKO           CLEAR     77  19  11 S12       30.02F
POCATELLO, ID  CLEAR     70  27  20 S17       30.07S
BURLEY         CLEAR     71  34  25 N5        30.01F
EVANSTON, WY   CLEAR     64  25  22 W15       30.25S
ROCK SPRINGS   CLEAR     63  24  22 SW7       30.23S
KEMMERER       CLEAR    N/A N/A N/A W10       30.26S

$$




U.S. Dept. of Commerce
NOAA National Weather Service
1325 East West Highway
Silver Spring, MD 20910
E-mail: w-nws.webmaster@noaa.gov
Page last modified: May 16, 2007
NATIONAL WEATHER SERVICE: for Safety, for Work, for Fun - FOR LIFE